Location: *
(43.0409°N, 0.1694°E)
Time: 13:27:08
(UTC+00:00)

Meteor 1-10 Rocket - Pass Details

Date: 03 October 2023
Orbit: 836 x 909 km, 81.3° (Epoch: 01 December)

Event Time Altitude Azimuth Distance (km) Brightness Sun altitude
Exits shadow 03:49:06 30° 185° (S) 1,450 5.2 -24.1°
Maximum altitude 03:51:56 86° 100° (E) 845 4.1 -23.6°
Drops below altitude 10° 03:57:30 10° 11° (N) 2,458 6.9 -22.7°
Sets 03:59:55 0° 11° (N) 3,398 7.7 -22.2°
